M I D A S
Marine Information and Data Acquisition System
Tripno 1747 of the Zeeleeuw from 2009-08-12 06:34:27 to 2009-08-12 12:35:58
Back to CruiseResearch ActivitiesStationsMapUnderway DataData graphs

EquipmentUnitsComments
TimeDGPSUTC
LatitudeDGPSDM.mWGS84
LongitudeDGPSDM.mWGS84
SpeedMeteo Stationm/sRelative wind speed
DirectionMeteo StationdegRelative wind direction
TemperatureMeteo Stationdeg CelciusAir temperature
PressureMeteo StationPaAtmospheric pressure
HumidityMeteo Station%Relative humidity
Missing or incorrect values are displayed as -999
Metereological data collected by the RV Zeeleeuw from 2009-08-12 06:28:51 to 2009-08-12 12:41:58
                                                                                    Next 1000 lines
Time Latitude Longitude Speed Direction Temperature Pressure Humidity
2009-08-12 06:29:00 51°13.685 2°55.91 2.8 23 17.1 101920 54
2009-08-12 06:29:05 51°13.685 2°55.91 3.2 20 17.1 101920 55
2009-08-12 06:29:10 51°13.685 2°55.91 3.2 20 17.1 101920 55
2009-08-12 06:29:16 51°13.686 2°55.91 3 31 17.1 101920 55
2009-08-12 06:29:20 51°13.686 2°55.91 3.1 32 17.1 101920 55
2009-08-12 06:29:25 51°13.686 2°55.91 3.1 42 17.1 101920 53
2009-08-12 06:29:30 51°13.686 2°55.91 3.9 22 17.1 101920 53
2009-08-12 06:29:35 51°13.685 2°55.91 3.4 29 17.1 101920 56
2009-08-12 06:29:41 51°13.685 2°55.91 3.3 23 17.1 101920 56
2009-08-12 06:29:45 51°13.686 2°55.91 3 15 17.2 101920 55
2009-08-12 06:29:50 51°13.686 2°55.91 3.1 14 17.2 101920 55
2009-08-12 06:29:55 51°13.686 2°55.91 2.3 21 17.1 101920 54
2009-08-12 06:30:00 51°13.686 2°55.91 3.5 11 17.1 101920 54
2009-08-12 06:30:05 51°13.686 2°55.91 2.7 12 17.1 101920 53
2009-08-12 06:30:10 51°13.686 2°55.91 2.8 26 17.1 101920 53
2009-08-12 06:30:15 51°13.686 2°55.91 2.3 26 17.1 101920 55
2009-08-12 06:30:20 51°13.686 2°55.91 3.1 15 17.1 101920 55
2009-08-12 06:30:25 51°13.686 2°55.91 2.6 29 17.2 101920 53
2009-08-12 06:30:30 51°13.686 2°55.91 4 28 17.2 101920 53
2009-08-12 06:30:35 51°13.686 2°55.909 4.3 27 17.2 101920 54
2009-08-12 06:30:40 51°13.686 2°55.909 4.1 26 17.2 101920 54
2009-08-12 06:30:45 51°13.686 2°55.909 3.7 24 17.2 101920 54
2009-08-12 06:30:50 51°13.686 2°55.909 3.5 22 17.2 101920 54
2009-08-12 06:30:55 51°13.686 2°55.909 3.5 23 17.2 101920 53
2009-08-12 06:31:00 51°13.686 2°55.91 4.3 24 17.2 101920 53
2009-08-12 06:31:05 51°13.687 2°55.91 4.7 25 17.2 101920 55
2009-08-12 06:31:10 51°13.687 2°55.91 5 21 17.2 101920 55
2009-08-12 06:31:15 51°13.687 2°55.91 4.2 24 17.2 101920 56
2009-08-12 06:31:20 51°13.687 2°55.91 4.2 21 17.2 101920 56
2009-08-12 06:31:25 51°13.688 2°55.91 4.6 17 17.2 101920 56
2009-08-12 06:31:30 51°13.688 2°55.91 3.7 23 17.2 101920 56
2009-08-12 06:31:35 51°13.688 2°55.91 4 21 17.2 101920 54
2009-08-12 06:31:40 51°13.688 2°55.91 4.3 26 17.2 101920 54
2009-08-12 06:31:45 51°13.688 2°55.91 4.6 24 17.2 101920 55
2009-08-12 06:31:50 51°13.689 2°55.91 4.2 25 17.2 101920 55
2009-08-12 06:31:55 51°13.689 2°55.91 4.4 21 17.2 101920 56
2009-08-12 06:32:00 51°13.688 2°55.91 4.4 17 17.2 101920 56
2009-08-12 06:32:05 51°13.688 2°55.91 4 20 17.2 101920 53
2009-08-12 06:32:09 51°13.688 2°55.91 3.8 21 17.2 101920 53
2009-08-12 06:32:15 51°13.688 2°55.91 3.5 17 17.2 101910 54
2009-08-12 06:32:20 51°13.688 2°55.91 3.8 11 17.2 101910 54
2009-08-12 06:32:25 51°13.688 2°55.91 3.7 18 17.2 101920 55
2009-08-12 06:32:31 51°13.688 2°55.91 3.2 7 17.2 101920 55
2009-08-12 06:32:35 51°13.689 2°55.91 3.6 14 17.2 101920 56
2009-08-12 06:32:40 51°13.689 2°55.91 2.9 23 17.2 101920 56
2009-08-12 06:32:45 51°13.689 2°55.91 2.8 26 17.1 101920 53
2009-08-12 06:32:51 51°13.689 2°55.91 3.4 19 17.1 101920 53
2009-08-12 06:32:55 51°13.689 2°55.91 3.4 34 17.1 101920 53
2009-08-12 06:33:00 51°13.689 2°55.91 2.8 15 17.1 101920 53
2009-08-12 06:33:05 51°13.689 2°55.91 2.6 22 17.2 101910 53
2009-08-12 06:33:10 51°13.689 2°55.91 2.4 26 17.2 101910 53
2009-08-12 06:33:15 51°13.688 2°55.91 2.7 22 17.2 101910 53
2009-08-12 06:33:20 51°13.688 2°55.91 3.6 29 17.2 101910 53
2009-08-12 06:33:25 51°13.688 2°55.91 3.5 23 17.2 101920 54
2009-08-12 06:33:30 51°13.688 2°55.91 3.8 27 17.2 101920 54
2009-08-12 06:33:35 51°13.688 2°55.91 3 21 17.2 101920 55
2009-08-12 06:33:41 51°13.688 2°55.91 3.9 27 17.2 101920 55
2009-08-12 06:33:45 51°13.688 2°55.91 4.8 27 17.2 101920 54
2009-08-12 06:33:50 51°13.689 2°55.91 3.3 28 17.2 101920 54
2009-08-12 06:33:55 51°13.689 2°55.911 3.8 25 17.2 101910 56
2009-08-12 06:34:01 51°13.689 2°55.911 3 24 17.2 101910 56
2009-08-12 06:34:05 51°13.689 2°55.911 3 21 17.2 101920 53
2009-08-12 06:34:10 51°13.689 2°55.91 2.3 18 17.2 101920 53
2009-08-12 06:34:15 51°13.688 2°55.91 2 10 17.2 101920 56
2009-08-12 06:34:21 51°13.688 2°55.91 3.2 9 17.2 101920 56
2009-08-12 06:34:25 51°13.688 2°55.91 3 18 17.2 101920 55
2009-08-12 06:34:30 51°13.688 2°55.911 2.4 19 17.2 101920 55
2009-08-12 06:34:35 51°13.688 2°55.911 2.6 16 17.2 101920 53
2009-08-12 06:34:40 51°13.688 2°55.911 3 15 17.2 101920 53
2009-08-12 06:34:45 51°13.688 2°55.911 2.5 11 17.2 101920 53
2009-08-12 06:34:50 51°13.688 2°55.911 2.3 27 17.2 101920 53
2009-08-12 06:34:55 51°13.688 2°55.911 2.1 15 17.2 101920 54
2009-08-12 06:35:00 51°13.688 2°55.911 2 30 17.2 101920 54
2009-08-12 06:35:05 51°13.688 2°55.911 2.5 27 17.2 101920 55
2009-08-12 06:35:10 51°13.688 2°55.911 2.7 23 17.2 101920 55
2009-08-12 06:35:15 51°13.688 2°55.911 2.9 23 17.2 101920 54
2009-08-12 06:35:20 51°13.688 2°55.911 3.1 26 17.2 101920 54
2009-08-12 06:35:25 51°13.688 2°55.911 3.2 29 17.2 101920 55
2009-08-12 06:35:31 51°13.687 2°55.911 3.3 25 17.2 101920 55
2009-08-12 06:35:35 51°13.687 2°55.911 3.4 26 17.2 101920 55
2009-08-12 06:35:40 51°13.687 2°55.911 2.7 22 17.2 101920 55
2009-08-12 06:35:45 51°13.687 2°55.91 3 24 17.2 101920 56
2009-08-12 06:35:50 51°13.687 2°55.91 2.7 22 17.2 101920 56
2009-08-12 06:35:55 51°13.686 2°55.91 2.7 27 17.2 101920 53
2009-08-12 06:36:01 51°13.686 2°55.91 2 25 17.2 101920 53
2009-08-12 06:36:05 51°13.686 2°55.91 1.8 24 17.2 101920 55
2009-08-12 06:36:10 51°13.686 2°55.91 2.3 25 17.2 101920 55
2009-08-12 06:36:15 51°13.687 2°55.91 2.6 29 17.2 101920 54
2009-08-12 06:36:20 51°13.687 2°55.91 2.5 26 17.2 101920 54
2009-08-12 06:36:25 51°13.687 2°55.91 2.6 34 17.3 101920 56
2009-08-12 06:36:30 51°13.687 2°55.91 2.8 31 17.3 101920 56
2009-08-12 06:36:35 51°13.687 2°55.91 2.4 34 17.2 101920 54
2009-08-12 06:36:40 51°13.686 2°55.91 2.8 39 17.2 101920 54
2009-08-12 06:36:45 51°13.686 2°55.91 2.5 27 17.2 101920 54
2009-08-12 06:36:50 51°13.687 2°55.911 2.8 24 17.2 101920 54
2009-08-12 06:36:55 51°13.687 2°55.911 2.5 17 17.3 101920 56
2009-08-12 06:37:00 51°13.687 2°55.911 2.8 17 17.3 101920 56
2009-08-12 06:37:05 51°13.687 2°55.911 3.4 29 17.2 101920 55
2009-08-12 06:37:10 51°13.687 2°55.911 3.7 27 17.2 101920 55
2009-08-12 06:37:15 51°13.687 2°55.911 3.9 20 17.2 101920 55
2009-08-12 06:37:20 51°13.687 2°55.911 3.5 19 17.2 101920 55
2009-08-12 06:37:25 51°13.687 2°55.911 3.4 19 17.3 101920 56
2009-08-12 06:37:30 51°13.687 2°55.911 3.5 27 17.3 101920 56
2009-08-12 06:37:35 51°13.686 2°55.91 3.3 24 17.3 101920 55
2009-08-12 06:37:40 51°13.686 2°55.91 2.5 24 17.3 101920 55
2009-08-12 06:37:45 51°13.686 2°55.91 2.6 23 17.3 101920 53
2009-08-12 06:37:50 51°13.686 2°55.91 2.4 21 17.3 101920 53
2009-08-12 06:37:55 51°13.686 2°55.91 2.2 24 17.3 101920 55
2009-08-12 06:38:00 51°13.686 2°55.91 2 33 17.3 101920 55
2009-08-12 06:38:05 51°13.686 2°55.91 1.8 27 17.2 101920 53
2009-08-12 06:38:09 51°13.686 2°55.91 2.2 24 17.2 101920 53
2009-08-12 06:38:16 51°13.686 2°55.91 1.9 42 17.2 101930 53
2009-08-12 06:38:20 51°13.685 2°55.91 1.8 42 17.2 101930 53
2009-08-12 06:38:25 51°13.685 2°55.91 2.8 43 17.3 101920 55
2009-08-12 06:38:29 51°13.685 2°55.91 1.6 36 17.3 101920 55
2009-08-12 06:38:35 51°13.685 2°55.91 2.4 34 17.2 101930 54
2009-08-12 06:38:40 51°13.685 2°55.91 2.8 38 17.2 101930 54
2009-08-12 06:38:45 51°13.685 2°55.91 2.7 39 17.3 101930 54
2009-08-12 06:38:50 51°13.685 2°55.909 2.3 35 17.3 101930 54
2009-08-12 06:38:55 51°13.685 2°55.908 2.6 38 17.3 101930 56
2009-08-12 06:39:00 51°13.685 2°55.907 2.6 35 17.3 101930 56
2009-08-12 06:39:05 51°13.686 2°55.904 2.7 29 17.3 101920 54
2009-08-12 06:39:10 51°13.687 2°55.901 3 40 17.3 101920 54
2009-08-12 06:39:15 51°13.688 2°55.898 3.4 41 17.3 101930 56
2009-08-12 06:39:20 51°13.689 2°55.893 3.2 35 17.3 101930 56
2009-08-12 06:39:25 51°13.69 2°55.889 3 32 17.3 101930 55
2009-08-12 06:39:31 51°13.691 2°55.883 2.3 39 17.3 101930 55
2009-08-12 06:39:36 51°13.692 2°55.878 2.8 38 17.3 101930 56
2009-08-12 06:39:42 51°13.693 2°55.871 3.4 38 17.3 101930 56
2009-08-12 06:39:48 51°13.695 2°55.864 3.2 26 17.3 101920 55
2009-08-12 06:39:53 51°13.695 2°55.859 2.8 40 17.3 101920 55
2009-08-12 06:39:59 51°13.696 2°55.851 2.7 21 17.3 101930 54
2009-08-12 06:40:04 51°13.697 2°55.845 3 33 17.3 101930 54
2009-08-12 06:40:09 51°13.698 2°55.839 3.2 42 17.3 101930 55
2009-08-12 06:40:14 51°13.698 2°55.833 4.1 43 17.3 101930 55
2009-08-12 06:40:19 51°13.698 2°55.827 3.7 20 17.3 101930 55
2009-08-12 06:40:24 51°13.699 2°55.821 3.8 45 17.3 101930 55
2009-08-12 06:40:29 51°13.699 2°55.815 3.5 43 17.3 101920 53
2009-08-12 06:40:34 51°13.699 2°55.809 3.6 35 17.3 101920 53
2009-08-12 06:40:39 51°13.699 2°55.804 4.1 22 17.3 101930 56
2009-08-12 06:40:44 51°13.699 2°55.798 5 38 17.3 101930 56
2009-08-12 06:40:49 51°13.699 2°55.793 4.6 37 17.3 101930 55
2009-08-12 06:40:54 51°13.699 2°55.787 6.3 42 17.3 101930 55
2009-08-12 06:40:59 51°13.699 2°55.783 4.7 39 17.3 101930 56
2009-08-12 06:41:04 51°13.699 2°55.78 4.9 41 17.3 101930 56
2009-08-12 06:41:09 51°13.699 2°55.778 4.4 43 17.3 101920 55
2009-08-12 06:41:14 51°13.699 2°55.777 3.3 58 17.3 101920 55
2009-08-12 06:41:19 51°13.699 2°55.776 3.8 24 17.3 101920 55
2009-08-12 06:41:23 51°13.7 2°55.776 3.4 57 17.3 101920 55
2009-08-12 06:41:28 51°13.7 2°55.775 2.1 22 17.3 101920 55
2009-08-12 06:41:33 51°13.7 2°55.774 2.2 38 17.3 101920 55
2009-08-12 06:41:37 51°13.7 2°55.773 2.4 45 17.3 101920 55
2009-08-12 06:41:42 51°13.699 2°55.771 3.5 51 17.3 101920 55
2009-08-12 06:41:48 51°13.699 2°55.769 1.8 21 17.3 101930 54
2009-08-12 06:41:52 51°13.698 2°55.768 3 38 17.3 101930 54
2009-08-12 06:41:57 51°13.697 2°55.766 3.1 27 17.3 101930 53
2009-08-12 06:42:02 51°13.696 2°55.763 2.6 56 17.3 101930 53
2009-08-12 06:42:06 51°13.695 2°55.761 2 21 17.2 101930 55
2009-08-12 06:42:12 51°13.693 2°55.759 2.2 57 17.2 101930 55
2009-08-12 06:42:16 51°13.692 2°55.757 2.7 22 17.2 101920 53
2009-08-12 06:42:21 51°13.691 2°55.755 3.4 31 17.2 101920 53
2009-08-12 06:42:27 51°13.691 2°55.754 2.2 26 17.3 101930 56
2009-08-12 06:42:32 51°13.692 2°55.754 1.7 50 17.3 101930 56
2009-08-12 06:42:37 51°13.693 2°55.754 1.1 264 17.3 101930 54
2009-08-12 06:42:41 51°13.694 2°55.754 1.2 36 17.3 101930 54
2009-08-12 06:42:46 51°13.696 2°55.754 1.2 22 17.3 101920 56
2009-08-12 06:42:51 51°13.699 2°55.753 1.3 60 17.3 101920 56
2009-08-12 06:42:56 51°13.702 2°55.752 0.5 21 17.3 101930 55
2009-08-12 06:43:01 51°13.705 2°55.751 0.7 329 17.3 101930 55
2009-08-12 06:43:05 51°13.707 2°55.749 1.1 319 17.3 101930 55
2009-08-12 06:43:10 51°13.711 2°55.747 2.6 309 17.3 101930 55
2009-08-12 06:43:15 51°13.714 2°55.744 2.1 338 17.3 101920 55
2009-08-12 06:43:20 51°13.718 2°55.74 3.2 318 17.3 101920 55
2009-08-12 06:43:25 51°13.722 2°55.737 2.9 28 17.3 101920 54
2009-08-12 06:43:30 51°13.726 2°55.733 3.8 316 17.3 101920 54
2009-08-12 06:43:35 51°13.731 2°55.728 3.8 22 17.3 101920 56
2009-08-12 06:43:40 51°13.735 2°55.724 4 303 17.3 101920 56
2009-08-12 06:43:45 51°13.74 2°55.719 2.8 28 17.3 101920 56
2009-08-12 06:43:50 51°13.744 2°55.714 3.4 236 17.3 101920 56
2009-08-12 06:43:55 51°13.749 2°55.709 3.3 27 17.3 101920 56
2009-08-12 06:44:00 51°13.754 2°55.704 2.1 241 17.3 101920 56
2009-08-12 06:44:05 51°13.759 2°55.699 3.1 250 17.3 101920 55
2009-08-12 06:44:10 51°13.764 2°55.693 3.1 250 17.3 101920 55
2009-08-12 06:44:15 51°13.769 2°55.688 2.8 25 17.3 101920 54
2009-08-12 06:44:20 51°13.774 2°55.683 2 32 17.3 101920 54
2009-08-12 06:44:25 51°13.78 2°55.677 2.1 22 17.3 101920 55
2009-08-12 06:44:30 51°13.785 2°55.672 2.1 245 17.3 101920 55
2009-08-12 06:44:35 51°13.791 2°55.667 2 21 17.4 101930 55
2009-08-12 06:44:41 51°13.797 2°55.661 1.7 301 17.4 101930 55
2009-08-12 06:44:45 51°13.802 2°55.657 2.1 21 17.4 101920 54
2009-08-12 06:44:50 51°13.808 2°55.652 3.1 301 17.4 101920 54
2009-08-12 06:44:55 51°13.813 2°55.647 2.6 22 17.4 101920 54
2009-08-12 06:45:00 51°13.819 2°55.643 2.3 244 17.4 101920 54
2009-08-12 06:45:05 51°13.824 2°55.639 2.1 245 17.3 101930 55
2009-08-12 06:45:10 51°13.83 2°55.635 2.5 256 17.3 101930 55
2009-08-12 06:45:15 51°13.836 2°55.632 1.8 259 17.4 101930 55
2009-08-12 06:45:21 51°13.842 2°55.629 1.3 286 17.4 101930 55
2009-08-12 06:45:25 51°13.847 2°55.627 1.9 32 17.4 101930 56
2009-08-12 06:45:30 51°13.852 2°55.626 2 54 17.4 101930 56
2009-08-12 06:45:35 51°13.857 2°55.626 1.8 26 17.4 101930 54
2009-08-12 06:45:41 51°13.863 2°55.626 1.9 50 17.4 101930 54
2009-08-12 06:45:45 51°13.867 2°55.627 1.4 27 17.4 101930 53
2009-08-12 06:45:50 51°13.872 2°55.628 1.3 58 17.4 101930 53
2009-08-12 06:45:55 51°13.877 2°55.629 1.8 26 17.4 101920 56
2009-08-12 06:46:00 51°13.882 2°55.631 1.6 54 17.4 101920 56
2009-08-12 06:46:05 51°13.887 2°55.632 1.1 267 17.4 101920 54
2009-08-12 06:46:10 51°13.892 2°55.633 0.8 303 17.4 101920 54
2009-08-12 06:46:15 51°13.897 2°55.634 1.2 264 17.4 101930 56
2009-08-12 06:46:20 51°13.901 2°55.634 1.8 74 17.4 101930 56
2009-08-12 06:46:25 51°13.906 2°55.634 1.2 25 17.4 101930 54
2009-08-12 06:46:30 51°13.91 2°55.633 2.2 308 17.4 101930 54
2009-08-12 06:46:35 51°13.914 2°55.633 1.8 254 17.4 101930 55
2009-08-12 06:46:40 51°13.919 2°55.632 1.8 252 17.4 101930 55
2009-08-12 06:46:45 51°13.923 2°55.631 1.9 260 17.4 101930 53
2009-08-12 06:46:50 51°13.926 2°55.63 1.8 255 17.4 101930 53
2009-08-12 06:46:55 51°13.93 2°55.629 2.5 255 17.4 101930 55
2009-08-12 06:47:01 51°13.935 2°55.628 2.4 303 17.4 101930 55
2009-08-12 06:47:05 51°13.937 2°55.627 2 264 17.4 101930 54
2009-08-12 06:47:10 51°13.941 2°55.626 3.5 255 17.4 101930 54
2009-08-12 06:47:15 51°13.944 2°55.624 3.6 257 17.4 101930 53
2009-08-12 06:47:21 51°13.948 2°55.622 2.6 282 17.4 101930 53
2009-08-12 06:47:25 51°13.95 2°55.621 2.9 261 17.4 101930 54
2009-08-12 06:47:30 51°13.953 2°55.619 2.5 303 17.4 101930 54
2009-08-12 06:47:35 51°13.956 2°55.618 3.3 260 17.4 101930 56
2009-08-12 06:47:41 51°13.959 2°55.616 2.7 308 17.4 101930 56
2009-08-12 06:47:45 51°13.961 2°55.614 2.7 258 17.4 101930 54
2009-08-12 06:47:50 51°13.964 2°55.613 2.3 309 17.4 101930 54
2009-08-12 06:47:55 51°13.966 2°55.611 3.4 252 17.4 101930 56
2009-08-12 06:48:00 51°13.969 2°55.609 2 300 17.4 101930 56
2009-08-12 06:48:05 51°13.971 2°55.606 2.2 260 17.4 101930 56
2009-08-12 06:48:10 51°13.974 2°55.604 2.7 304 17.4 101930 56
2009-08-12 06:48:15 51°13.977 2°55.601 3.4 21 17.4 101930 56
2009-08-12 06:48:20 51°13.98 2°55.598 2.9 276 17.4 101930 56
2009-08-12 06:48:25 51°13.984 2°55.595 2.5 250 17.4 101930 53
2009-08-12 06:48:30 51°13.988 2°55.592 2.6 308 17.4 101930 53
2009-08-12 06:48:35 51°13.992 2°55.588 1.5 248 17.4 101930 54
2009-08-12 06:48:41 51°13.997 2°55.583 2.3 306 17.4 101930 54
2009-08-12 06:48:45 51°14.001 2°55.58 2.7 21 17.4 101930 53
2009-08-12 06:48:50 51°14.006 2°55.574 2.4 234 17.4 101930 53
2009-08-12 06:48:55 51°14.011 2°55.568 3.8 27 17.4 101930 55
2009-08-12 06:49:01 51°14.017 2°55.56 3.3 307 17.4 101930 55
2009-08-12 06:49:05 51°14.022 2°55.554 3.8 21 17.4 101930 56
2009-08-12 06:49:10 51°14.028 2°55.547 4.6 318 17.4 101930 56
2009-08-12 06:49:15 51°14.034 2°55.539 4.7 321 17.4 101930 53
2009-08-12 06:49:21 51°14.042 2°55.529 3.6 307 17.4 101930 53
2009-08-12 06:49:25 51°14.048 2°55.521 3.1 28 17.4 101930 55
2009-08-12 06:49:29 51°14.053 2°55.514 2.9 306 17.4 101930 55
2009-08-12 06:49:35 51°14.062 2°55.503 2.9 28 17.4 101930 54
2009-08-12 06:49:40 51°14.07 2°55.493 3.6 318 17.4 101930 54
2009-08-12 06:49:45 51°14.078 2°55.484 3.6 318 17.4 101930 53
2009-08-12 06:49:50 51°14.087 2°55.473 3.6 243 17.4 101930 53
2009-08-12 06:49:55 51°14.095 2°55.463 2.9 21 17.4 101930 55
2009-08-12 06:50:00 51°14.104 2°55.453 2.9 39 17.4 101930 55
2009-08-12 06:50:05 51°14.112 2°55.442 2.2 27 17.5 101930 56
2009-08-12 06:50:10 51°14.121 2°55.431 3 322 17.5 101930 56
2009-08-12 06:50:15 51°14.13 2°55.421 4.1 321 17.5 101930 54
2009-08-12 06:50:20 51°14.139 2°55.41 3.1 326 17.5 101930 54
2009-08-12 06:50:25 51°14.148 2°55.399 3.5 332 17.5 101930 54
2009-08-12 06:50:30 51°14.157 2°55.388 5.5 320 17.5 101930 54
2009-08-12 06:50:35 51°14.166 2°55.376 6.3 323 17.5 101930 54
2009-08-12 06:50:40 51°14.176 2°55.365 5.2 316 17.5 101930 54
2009-08-12 06:50:45 51°14.185 2°55.354 4.9 28 17.5 101930 53
2009-08-12 06:50:50 51°14.194 2°55.342 6.1 303 17.5 101930 53
2009-08-12 06:50:55 51°14.203 2°55.33 6.1 26 17.5 101930 54
2009-08-12 06:51:00 51°14.212 2°55.318 4.1 303 17.5 101930 54
2009-08-12 06:51:05 51°14.221 2°55.306 6.5 20 17.6 101930 55
2009-08-12 06:51:10 51°14.229 2°55.293 6.3 300 17.6 101930 55
2009-08-12 06:51:15 51°14.238 2°55.28 5.8 26 17.6 101930 56
2009-08-12 06:51:20 51°14.246 2°55.266 6.3 302 17.6 101930 56
2009-08-12 06:51:25 51°14.255 2°55.252 7.3 26 17.6 101930 56
2009-08-12 06:51:30 51°14.263 2°55.238 6.9 306 17.6 101930 56
2009-08-12 06:51:35 51°14.271 2°55.223 6.3 25 17.6 101920 54
2009-08-12 06:51:40 51°14.279 2°55.208 6.8 301 17.6 101920 54
2009-08-12 06:51:45 51°14.287 2°55.193 8.4 26 17.6 101930 54
2009-08-12 06:51:50 51°14.295 2°55.178 7.5 309 17.6 101930 54
2009-08-12 06:51:55 51°14.304 2°55.162 6.5 20 17.6 101930 55
2009-08-12 06:52:01 51°14.313 2°55.143 5.8 309 17.6 101930 55
2009-08-12 06:52:05 51°14.32 2°55.131 6.4 27 17.7 101930 54
2009-08-12 06:52:10 51°14.329 2°55.114 7.5 326 17.7 101930 54
2009-08-12 06:52:15 51°14.337 2°55.098 6 23 17.7 101920 56
2009-08-12 06:52:20 51°14.346 2°55.081 7 309 17.7 101920 56
2009-08-12 06:52:25 51°14.355 2°55.065 6.6 21 17.7 101920 55
2009-08-12 06:52:30 51°14.365 2°55.049 8.5 300 17.7 101920 55
2009-08-12 06:52:35 51°14.375 2°55.034 8.9 22 17.7 101930 56
2009-08-12 06:52:41 51°14.388 2°55.016 8.8 303 17.7 101930 56
2009-08-12 06:52:45 51°14.397 2°55.005 8.1 26 17.7 101920 56
2009-08-12 06:52:50 51°14.408 2°54.991 6.3 305 17.7 101920 56
2009-08-12 06:52:55 51°14.42 2°54.978 7.7 27 17.8 101920 54
2009-08-12 06:53:00 51°14.433 2°54.966 7.7 308 17.8 101920 54
2009-08-12 06:53:05 51°14.446 2°54.954 6.4 25 17.8 101920 54
2009-08-12 06:53:10 51°14.458 2°54.941 6.5 308 17.8 101920 54
2009-08-12 06:53:15 51°14.471 2°54.928 6.2 20 17.8 101930 56
2009-08-12 06:53:20 51°14.484 2°54.915 6.4 308 17.8 101930 56
2009-08-12 06:53:25 51°14.497 2°54.903 8.2 27 17.8 101930 54
2009-08-12 06:53:30 51°14.511 2°54.89 6.5 306 17.8 101930 54
2009-08-12 06:53:35 51°14.524 2°54.878 8.5 26 17.8 101930 54
2009-08-12 06:53:40 51°14.538 2°54.865 8.6 308 17.8 101930 54
2009-08-12 06:53:45 51°14.552 2°54.852 6.5 28 17.8 101930 55
2009-08-12 06:53:50 51°14.565 2°54.839 6.6 301 17.8 101930 55
2009-08-12 06:53:55 51°14.579 2°54.826 7.6 25 17.9 101930 54
2009-08-12 06:54:00 51°14.593 2°54.813 7.7 303 17.9 101930 54
2009-08-12 06:54:05 51°14.607 2°54.8 7.7 23 17.9 101930 54
2009-08-12 06:54:09 51°14.618 2°54.79 7.9 303 17.9 101930 54
2009-08-12 06:54:15 51°14.635 2°54.774 6.7 29 17.9 101930 56
2009-08-12 06:54:21 51°14.652 2°54.759 8.7 303 17.9 101930 56
2009-08-12 06:54:25 51°14.663 2°54.748 8 27 17.9 101920 54
2009-08-12 06:54:30 51°14.677 2°54.735 9.4 303 17.9 101920 54
2009-08-12 06:54:35 51°14.691 2°54.723 9.4 23 17.9 101930 54
2009-08-12 06:54:41 51°14.708 2°54.707 10.3 307 17.9 101930 54
2009-08-12 06:54:45 51°14.719 2°54.697 10.1 25 18 101920 56
2009-08-12 06:54:50 51°14.733 2°54.684 8 309 18 101920 56
2009-08-12 06:54:55 51°14.747 2°54.671 10.2 21 18 101920 56
2009-08-12 06:55:00 51°14.761 2°54.658 7.9 301 18 101920 56
2009-08-12 06:55:05 51°14.775 2°54.645 10 30 18.1 101920 54
2009-08-12 06:55:10 51°14.789 2°54.633 9.6 305 18.1 101920 54
2009-08-12 06:55:15 51°14.802 2°54.621 8.9 27 18.1 101910 56
2009-08-12 06:55:20 51°14.817 2°54.61 8.2 300 18.1 101910 56
2009-08-12 06:55:25 51°14.831 2°54.598 10.2 22 18.2 101910 57
2009-08-12 06:55:30 51°14.845 2°54.586 8.5 308 18.2 101910 57
2009-08-12 06:55:35 51°14.859 2°54.574 8.3 26 18.2 101910 56
2009-08-12 06:55:40 51°14.873 2°54.562 8.8 303 18.2 101910 56
2009-08-12 06:55:45 51°14.887 2°54.551 10.1 23 18.2 101920 56
2009-08-12 06:55:51 51°14.904 2°54.537 8.6 304 18.2 101920 56
2009-08-12 06:55:55 51°14.916 2°54.527 10.7 24 18.3 101910 55
2009-08-12 06:56:00 51°14.93 2°54.515 10 309 18.3 101910 55
2009-08-12 06:56:05 51°14.944 2°54.503 8.8 23 18.3 101910 56
2009-08-12 06:56:10 51°14.958 2°54.491 8.4 302 18.3 101910 56
2009-08-12 06:56:15 51°14.973 2°54.48 11.7 22 18.3 101920 57
2009-08-12 06:56:21 51°14.99 2°54.465 10.6 303 18.3 101920 57
2009-08-12 06:56:25 51°15.001 2°54.456 9.8 28 18.3 101920 55
2009-08-12 06:56:30 51°15.015 2°54.444 11.9 309 18.3 101920 55
2009-08-12 06:56:35 51°15.03 2°54.432 12.5 26 18.3 101910 55
2009-08-12 06:56:41 51°15.047 2°54.418 12.3 308 18.3 101910 55
2009-08-12 06:56:45 51°15.058 2°54.409 13 25 18.3 101910 57
2009-08-12 06:56:50 51°15.072 2°54.396 10.7 302 18.3 101910 57
2009-08-12 06:56:55 51°15.086 2°54.384 12.3 29 18.4 101920 56
2009-08-12 06:57:01 51°15.103 2°54.37 13.1 306 18.4 101920 56
2009-08-12 06:57:05 51°15.114 2°54.36 11.1 26 18.3 101900 57
2009-08-12 06:57:10 51°15.128 2°54.348 12.7 303 18.3 101900 57
2009-08-12 06:57:15 51°15.142 2°54.336 12.5 22 18.4 101910 55
2009-08-12 06:57:20 51°15.156 2°54.324 11.2 300 18.4 101910 55
2009-08-12 06:57:25 51°15.17 2°54.312 13.5 26 18.4 101900 56
2009-08-12 06:57:30 51°15.183 2°54.3 13.1 302 18.4 101900 56
2009-08-12 06:57:35 51°15.198 2°54.288 13.2 27 18.4 101900 57
2009-08-12 06:57:40 51°15.212 2°54.276 10.5 305 18.4 101900 57
2009-08-12 06:57:45 51°15.225 2°54.264 9.8 21 18.4 101910 55
2009-08-12 06:57:50 51°15.239 2°54.252 12.8 307 18.4 101910 55
2009-08-12 06:57:55 51°15.253 2°54.24 9.7 26 18.4 101900 55
2009-08-12 06:58:00 51°15.267 2°54.227 11 307 18.4 101900 55
2009-08-12 06:58:05 51°15.281 2°54.215 13.6 22 18.4 101910 56
2009-08-12 06:58:11 51°15.298 2°54.201 13.3 310 18.4 101910 56
2009-08-12 06:58:15 51°15.309 2°54.191 10.6 25 18.4 101900 56
2009-08-12 06:58:20 51°15.323 2°54.179 10.9 309 18.4 101900 56
2009-08-12 06:58:25 51°15.337 2°54.167 10.5 27 18.4 101910 55
2009-08-12 06:58:29 51°15.348 2°54.157 13.4 306 18.4 101910 55
2009-08-12 06:58:35 51°15.365 2°54.143 10 24 18.4 101900 55
2009-08-12 06:58:40 51°15.379 2°54.131 13.2 306 18.4 101900 55
2009-08-12 06:58:45 51°15.393 2°54.119 12 28 18.4 101900 56
2009-08-12 06:58:50 51°15.406 2°54.107 12.1 302 18.4 101900 56
2009-08-12 06:58:55 51°15.42 2°54.095 10.3 27 18.4 101910 55
2009-08-12 06:59:00 51°15.434 2°54.083 12.6 303 18.4 101910 55
2009-08-12 06:59:05 51°15.448 2°54.071 12.7 29 18.5 101890 55
2009-08-12 06:59:09 51°15.46 2°54.061 12.9 304 18.5 101890 55
2009-08-12 06:59:15 51°15.476 2°54.046 12.8 28 18.5 101900 57
2009-08-12 06:59:20 51°15.49 2°54.034 13.2 282 18.5 101900 57
2009-08-12 06:59:25 51°15.504 2°54.022 12.6 27 18.5 101900 55
2009-08-12 06:59:30 51°15.518 2°54.01 12.4 305 18.5 101900 55
2009-08-12 06:59:35 51°15.532 2°53.998 10.5 25 18.6 101900 56
2009-08-12 06:59:40 51°15.546 2°53.985 10.7 301 18.6 101900 56
2009-08-12 06:59:45 51°15.56 2°53.973 12.9 22 18.6 101890 55
2009-08-12 06:59:50 51°15.574 2°53.961 11 307 18.6 101890 55
2009-08-12 06:59:55 51°15.588 2°53.949 13 26 18.6 101900 55
2009-08-12 07:00:00 51°15.602 2°53.937 12.7 306 18.6 101900 55
2009-08-12 07:00:05 51°15.616 2°53.925 10.6 23 18.6 101900 57
2009-08-12 07:00:10 51°15.63 2°53.913 12.7 304 18.6 101900 57
2009-08-12 07:00:15 51°15.644 2°53.9 10.8 27 18.6 101890 56
2009-08-12 07:00:20 51°15.657 2°53.888 11.8 303 18.6 101890 56
2009-08-12 07:00:25 51°15.671 2°53.876 12 29 18.6 101900 55
2009-08-12 07:00:31 51°15.688 2°53.861 11.5 304 18.6 101900 55
2009-08-12 07:00:35 51°15.699 2°53.85 10.2 23 18.7 101900 55
2009-08-12 07:00:40 51°15.713 2°53.838 10.1 304 18.7 101900 55
2009-08-12 07:00:45 51°15.726 2°53.826 10.5 28 18.7 101900 57
2009-08-12 07:00:50 51°15.74 2°53.814 13.2 304 18.7 101900 57
2009-08-12 07:00:55 51°15.754 2°53.801 12.4 22 18.7 101900 55
2009-08-12 07:01:00 51°15.768 2°53.79 11 305 18.7 101900 55
2009-08-12 07:01:05 51°15.782 2°53.777 12.9 25 18.7 101900 55
2009-08-12 07:01:09 51°15.794 2°53.767 10.4 303 18.7 101900 55
2009-08-12 07:01:16 51°15.813 2°53.751 11.2 27 18.7 101910 56
2009-08-12 07:01:20 51°15.825 2°53.741 9 279 18.7 101910 56
2009-08-12 07:01:25 51°15.839 2°53.729 10.5 28 18.7 101900 56
2009-08-12 07:01:30 51°15.853 2°53.717 10.5 302 18.7 101900 56
2009-08-12 07:01:35 51°15.867 2°53.704 10.6 25 18.7 101910 55
2009-08-12 07:01:40 51°15.88 2°53.692 10.9 303 18.7 101910 55
2009-08-12 07:01:45 51°15.894 2°53.679 10.8 25 18.8 101900 55
2009-08-12 07:01:50 51°15.908 2°53.667 11.7 310 18.8 101900 55
2009-08-12 07:01:55 51°15.922 2°53.654 10.5 25 18.8 101900 55
2009-08-12 07:02:00 51°15.936 2°53.641 12 307 18.8 101900 55
2009-08-12 07:02:05 51°15.95 2°53.629 12.7 19 18.8 101890 57
2009-08-12 07:02:11 51°15.966 2°53.615 10.3 307 18.8 101890 57
2009-08-12 07:02:16 51°15.98 2°53.603 11.7 23 18.8 101900 54
2009-08-12 07:02:21 51°15.995 2°53.591 12.1 303 18.8 101900 54
2009-08-12 07:02:26 51°16.008 2°53.579 9.7 28 18.8 101900 56
2009-08-12 07:02:31 51°16.023 2°53.567 10.8 307 18.8 101900 56
2009-08-12 07:02:35 51°16.034 2°53.557 12.2 23 18.8 101900 56
2009-08-12 07:02:41 51°16.051 2°53.543 12.1 305 18.8 101900 56
2009-08-12 07:02:46 51°16.065 2°53.53 12.1 26 18.8 101900 57
2009-08-12 07:02:51 51°16.079 2°53.517 9.6 306 18.8 101900 57
2009-08-12 07:02:56 51°16.093 2°53.505 10.7 22 18.8 101900 56
2009-08-12 07:03:01 51°16.107 2°53.493 11 306 18.8 101900 56
2009-08-12 07:03:06 51°16.121 2°53.48 11.4 21 18.8 101900 56
2009-08-12 07:03:10 51°16.133 2°53.471 10.5 303 18.8 101900 56
2009-08-12 07:03:16 51°16.15 2°53.456 10.4 22 18.8 101890 56
2009-08-12 07:03:21 51°16.164 2°53.444 11.8 279 18.8 101890 56
2009-08-12 07:03:26 51°16.179 2°53.432 12 27 18.9 101900 55
2009-08-12 07:03:31 51°16.193 2°53.421 11.7 303 18.9 101900 55
2009-08-12 07:03:36 51°16.207 2°53.409 11.6 22 18.9 101900 56
2009-08-12 07:03:41 51°16.222 2°53.397 12.1 304 18.9 101900 56
2009-08-12 07:03:46 51°16.236 2°53.385 10.3 22 18.8 101900 57
2009-08-12 07:03:51 51°16.251 2°53.373 10.7 308 18.8 101900 57
2009-08-12 07:03:55 51°16.262 2°53.364 9.9 24 18.8 101900 55
2009-08-12 07:04:01 51°16.28 2°53.35 9.8 299 18.8 101900 55
2009-08-12 07:04:06 51°16.294 2°53.338 10.7 25 18.8 101900 56
2009-08-12 07:04:11 51°16.308 2°53.325 11.9 301 18.8 101900 56
2009-08-12 07:04:15 51°16.32 2°53.316 10.3 25 18.8 101900 55
2009-08-12 07:04:21 51°16.337 2°53.301 10.7 301 18.8 101900 55
2009-08-12 07:04:26 51°16.351 2°53.289 10.7 27 18.8 101900 54
2009-08-12 07:04:31 51°16.365 2°53.277 11.8 303 18.8 101900 54
2009-08-12 07:04:36 51°16.379 2°53.264 9.9 24 18.9 101900 55
2009-08-12 07:04:41 51°16.393 2°53.252 9.6 306 18.9 101900 55
2009-08-12 07:04:46 51°16.408 2°53.24 9.2 28 18.9 101900 55
2009-08-12 07:04:51 51°16.422 2°53.228 11.2 306 18.9 101900 55
2009-08-12 07:04:56 51°16.436 2°53.216 10.2 26 18.8 101900 54
2009-08-12 07:05:01 51°16.45 2°53.204 10.5 302 18.8 101900 54
2009-08-12 07:05:05 51°16.461 2°53.195 12 28 18.8 101900 56
2009-08-12 07:05:11 51°16.479 2°53.18 11.7 306 18.8 101900 56
2009-08-12 07:05:16 51°16.493 2°53.168 10.1 28 18.8 101910 56
2009-08-12 07:05:21 51°16.507 2°53.156 11.8 277 18.8 101910 56
2009-08-12 07:05:26 51°16.521 2°53.144 10.8 22 18.8 101900 56
2009-08-12 07:05:31 51°16.535 2°53.132 11.4 304 18.8 101900 56
2009-08-12 07:05:36 51°16.549 2°53.12 11.7 24 18.8 101900 57
2009-08-12 07:05:41 51°16.564 2°53.108 11.3 308 18.8 101900 57
2009-08-12 07:05:46 51°16.578 2°53.096 9.5 26 18.8 101900 56
2009-08-12 07:05:51 51°16.592 2°53.084 10.2 302 18.8 101900 56
2009-08-12 07:05:55 51°16.603 2°53.075 9.7 28 18.8 101900 55
2009-08-12 07:06:01 51°16.62 2°53.06 11.9 310 18.8 101900 55
2009-08-12 07:06:06 51°16.635 2°53.049 11.9 22 18.8 101900 56
2009-08-12 07:06:11 51°16.649 2°53.037 11.7 301 18.8 101900 56
2009-08-12 07:06:15 51°16.66 2°53.028 10.1 29 18.8 101900 57
2009-08-12 07:06:21 51°16.677 2°53.013 10.2 305 18.8 101900 57
2009-08-12 07:06:26 51°16.691 2°53.001 11.9 21 18.8 101900 56
2009-08-12 07:06:30 51°16.702 2°52.991 9.5 305 18.8 101900 56
2009-08-12 07:06:36 51°16.719 2°52.977 11.7 24 18.8 101890 55
2009-08-12 07:06:41 51°16.734 2°52.965 9.3 305 18.8 101890 55
2009-08-12 07:06:46 51°16.748 2°52.952 11.7 22 18.7 101900 56
2009-08-12 07:06:50 51°16.759 2°52.943 10.3 305 18.7 101900 56
2009-08-12 07:06:56 51°16.776 2°52.928 10 28 18.7 101900 55
2009-08-12 07:07:01 51°16.79 2°52.916 11 306 18.7 101900 55
2009-08-12 07:07:05 51°16.801 2°52.906 9.8 29 18.7 101900 55
2009-08-12 07:07:11 51°16.818 2°52.891 11.5 304 18.7 101900 55
2009-08-12 07:07:16 51°16.832 2°52.879 9.8 27 18.7 101900 55
2009-08-12 07:07:21 51°16.846 2°52.866 10.5 276 18.7 101900 55
2009-08-12 07:07:26 51°16.86 2°52.853 12.1 26 18.7 101900 56
2009-08-12 07:07:31 51°16.873 2°52.839 12.7 307 18.7 101900 56
2009-08-12 07:07:36 51°16.887 2°52.826 12.3 21 18.7 101900 55
2009-08-12 07:07:41 51°16.9 2°52.812 10.1 304 18.7 101900 55
2009-08-12 07:07:46 51°16.914 2°52.799 11.9 21 18.7 101910 55
2009-08-12 07:07:51 51°16.928 2°52.785 12 303 18.7 101910 55
2009-08-12 07:07:56 51°16.941 2°52.771 9.5 29 18.7 101900 54
2009-08-12 07:08:01 51°16.955 2°52.758 10.9 304 18.7 101900 54
2009-08-12 07:08:06 51°16.969 2°52.744 11.6 26 18.7 101900 55
2009-08-12 07:08:11 51°16.983 2°52.731 10.3 307 18.7 101900 55
2009-08-12 07:08:15 51°16.993 2°52.72 12.3 22 18.7 101900 56
2009-08-12 07:08:21 51°17.01 2°52.703 10.3 305 18.7 101900 56
2009-08-12 07:08:26 51°17.023 2°52.689 12.5 20 18.7 101910 55
2009-08-12 07:08:31 51°17.037 2°52.676 9.8 304 18.7 101910 55
2009-08-12 07:08:36 51°17.05 2°52.662 10.2 26 18.7 101900 55
2009-08-12 07:08:41 51°17.064 2°52.648 9.4 304 18.7 101900 55
2009-08-12 07:08:46 51°17.077 2°52.634 9.7 25 18.7 101890 56
2009-08-12 07:08:50 51°17.088 2°52.623 11.7 306 18.7 101890 56
2009-08-12 07:08:56 51°17.104 2°52.607 10.5 29 18.8 101890 56
2009-08-12 07:09:01 51°17.118 2°52.592 11.8 305 18.8 101890 56
2009-08-12 07:09:06 51°17.131 2°52.578 10.7 25 18.8 101890 54
2009-08-12 07:09:10 51°17.142 2°52.567 12.9 308 18.8 101890 54
2009-08-12 07:09:16 51°17.158 2°52.551 10.1 26 18.8 101890 56
2009-08-12 07:09:21 51°17.171 2°52.537 12.1 276 18.8 101890 56
2009-08-12 07:09:26 51°17.184 2°52.523 9.8 28 18.8 101890 54
2009-08-12 07:09:30 51°17.195 2°52.511 12.7 306 18.8 101890 54
2009-08-12 07:09:36 51°17.211 2°52.495 9.6 24 18.8 101890 56
2009-08-12 07:09:41 51°17.225 2°52.481 9.8 303 18.8 101890 56
2009-08-12 07:09:46 51°17.238 2°52.467 9.4 26 18.8 101890 55
2009-08-12 07:09:50 51°17.249 2°52.455 10 305 18.8 101890 55
2009-08-12 07:09:56 51°17.265 2°52.439 9.7 24 18.8 101890 54
2009-08-12 07:10:01 51°17.278 2°52.424 11.4 305 18.8 101890 54
2009-08-12 07:10:06 51°17.292 2°52.41 9.4 21 18.8 101900 55
2009-08-12 07:10:10 51°17.302 2°52.398 10.7 303 18.8 101900 55
2009-08-12 07:10:16 51°17.319 2°52.382 10.7 23 18.8 101890 54
2009-08-12 07:10:21 51°17.332 2°52.367 11.8 309 18.8 101890 54
2009-08-12 07:10:26 51°17.346 2°52.354 9.4 24 18.8 101890 55
2009-08-12 07:10:30 51°17.357 2°52.343 11.8 305 18.8 101890 55
2009-08-12 07:10:36 51°17.373 2°52.326 12.7 21 18.8 101890 55
2009-08-12 07:10:41 51°17.387 2°52.313 12 306 18.8 101890 55
2009-08-12 07:10:46 51°17.4 2°52.298 11.8 26 18.8 101890 55
2009-08-12 07:10:50 51°17.411 2°52.287 10.6 301 18.8 101890 55
2009-08-12 07:10:56 51°17.426 2°52.268 10.3 27 18.9 101900 56
2009-08-12 07:11:01 51°17.439 2°52.253 12.9 305 18.9 101900 56
2009-08-12 07:11:06 51°17.451 2°52.236 13.6 25 18.9 101890 56
2009-08-12 07:11:11 51°17.463 2°52.22 11.1 303 18.9 101890 56
2009-08-12 07:11:16 51°17.475 2°52.202 13.2 25 18.9 101900 55
2009-08-12 07:11:21 51°17.486 2°52.185 11.3 281 18.9 101900 55
2009-08-12 07:11:26 51°17.497 2°52.166 13.2 26 18.9 101890 54
2009-08-12 07:11:30 51°17.506 2°52.152 10.8 304 18.9 101890 54
2009-08-12 07:11:36 51°17.519 2°52.129 12.5 27 18.9 101890 56
2009-08-12 07:11:41 51°17.53 2°52.111 13.8 304 18.9 101890 56
2009-08-12 07:11:46 51°17.541 2°52.092 12.5 316 18.9 101890 55
2009-08-12 07:11:51 51°17.551 2°52.072 11.5 308 18.9 101890 55
2009-08-12 07:11:56 51°17.561 2°52.053 11.2 315 18.9 101890 55
2009-08-12 07:12:01 51°17.572 2°52.034 10.7 301 18.9 101890 55
2009-08-12 07:12:06 51°17.582 2°52.014 13.2 316 18.9 101890 55
2009-08-12 07:12:10 51°17.59 2°51.998 10.8 305 18.9 101890 55
2009-08-12 07:12:16 51°17.602 2°51.975 10.5 315 18.9 101900 56
2009-08-12 07:12:21 51°17.612 2°51.955 10.8 308 18.9 101900 56
2009-08-12 07:12:26 51°17.622 2°51.935 11.9 317 18.9 101900 55
2009-08-12 07:12:31 51°17.632 2°51.915 14 302 18.9 101900 55
2009-08-12 07:12:36 51°17.642 2°51.895 13.4 315 18.9 101890 56
2009-08-12 07:12:41 51°17.652 2°51.875 10.6 306 18.9 101890 56
2009-08-12 07:12:46 51°17.662 2°51.855 12.9 315 18.9 101900 56
2009-08-12 07:12:51 51°17.672 2°51.835 10.5 305 18.9 101900 56
2009-08-12 07:12:55 51°17.68 2°51.819 12.9 24 18.9 101900 53
2009-08-12 07:13:01 51°17.692 2°51.795 10.9 306 18.9 101900 53
2009-08-12 07:13:06 51°17.702 2°51.775 11 24 18.9 101900 55
2009-08-12 07:13:11 51°17.711 2°51.755 13.1 302 18.9 101900 55
2009-08-12 07:13:15 51°17.719 2°51.739 13.1 24 18.9 101900 55
2009-08-12 07:13:21 51°17.731 2°51.715 9.7 285 18.9 101900 55
2009-08-12 07:13:26 51°17.741 2°51.695 10.1 316 18.9 101890 54
2009-08-12 07:13:31 51°17.751 2°51.675 11.1 304 18.9 101890 54
2009-08-12 07:13:36 51°17.761 2°51.655 11 315 18.9 101890 54
2009-08-12 07:13:41 51°17.771 2°51.635 12.2 306 18.9 101890 54
2009-08-12 07:13:46 51°17.781 2°51.615 13 318 18.9 101890 56
2009-08-12 07:13:51 51°17.791 2°51.595 10.8 304 18.9 101890 56
2009-08-12 07:13:55 51°17.799 2°51.579 12.8 316 18.9 101890 54
2009-08-12 07:14:01 51°17.812 2°51.556 12.3 305 18.9 101890 54
2009-08-12 07:14:06 51°17.822 2°51.536 11.6 318 18.9 101900 56
2009-08-12 07:14:11 51°17.832 2°51.516 10 305 18.9 101900 56
2009-08-12 07:14:16 51°17.842 2°51.496 10.1 318 18.9 101900 55
2009-08-12 07:14:21 51°17.852 2°51.476 12.7 304 18.9 101900 55
2009-08-12 07:14:26 51°17.862 2°51.456 13.1 318 19 101900 55
2009-08-12 07:14:30 51°17.871 2°51.44 12.7 310 19 101900 55
2009-08-12 07:14:36 51°17.883 2°51.417 10.8 316 19 101890 54
2009-08-12 07:14:41 51°17.893 2°51.397 10.7 306 19 101890 54
2009-08-12 07:14:46 51°17.904 2°51.377 10 27 19 101900 55
2009-08-12 07:14:51 51°17.914 2°51.357 10.3 307 19 101900 55
2009-08-12 07:14:56 51°17.924 2°51.337 12 316 18.9 101890 54
2009-08-12 07:15:01 51°17.934 2°51.318 10.3 306 18.9 101890 54
2009-08-12 07:15:06 51°17.945 2°51.298 12 26 18.9 101890 54
2009-08-12 07:15:11 51°17.955 2°51.278 12.9 308 18.9 101890 54
2009-08-12 07:15:15 51°17.964 2°51.262 12.6 315 18.9 101900 54
2009-08-12 07:15:21 51°17.976 2°51.238 10 280 18.9 101900 54
2009-08-12 07:15:26 51°17.986 2°51.218 10 315 18.9 101890 55
2009-08-12 07:15:31 51°17.997 2°51.198 9.9 305 18.9 101890 55
2009-08-12 07:15:35 51°18.005 2°51.183 11.9 316 18.9 101890 53
2009-08-12 07:15:41 51°18.017 2°51.159 9.3 304 18.9 101890 53
2009-08-12 07:15:46 51°18.028 2°51.139 10.3 315 18.9 101890 55
2009-08-12 07:15:51 51°18.038 2°51.119 10.4 307 18.9 101890 55
2009-08-12 07:15:56 51°18.048 2°51.099 9.8 26 18.9 101890 54
2009-08-12 07:16:01 51°18.059 2°51.079 10.4 302 18.9 101890 54
2009-08-12 07:16:06 51°18.069 2°51.059 11.5 27 18.9 101890 54
2009-08-12 07:16:11 51°18.079 2°51.04 9.9 301 18.9 101890 54
2009-08-12 07:16:16 51°18.09 2°51.02 11.3 318 18.9 101890 54
2009-08-12 07:16:21 51°18.1 2°51 9.4 305 18.9 101890 54
2009-08-12 07:16:26 51°18.11 2°50.98 10.1 318 18.9 101880 55
2009-08-12 07:16:31 51°18.12 2°50.961 12.1 306 18.9 101880 55
2009-08-12 07:16:36 51°18.13 2°50.94 10.8 316 18.9 101890 55
2009-08-12 07:16:41 51°18.141 2°50.921 12.1 303 18.9 101890 55
2009-08-12 07:16:46 51°18.151 2°50.9 11.1 318 18.9 101890 54
2009-08-12 07:16:51 51°18.161 2°50.88 10.3 302 18.9 101890 54
2009-08-12 07:16:56 51°18.171 2°50.861 12.6 318 18.9 101890 56
2009-08-12 07:17:01 51°18.182 2°50.841 10.6 308 18.9 101890 56
2009-08-12 07:17:06 51°18.192 2°50.821 12.4 317 18.9 101890 54
2009-08-12 07:17:11 51°18.202 2°50.802 12.1 304 18.9 101890 54
2009-08-12 07:17:15 51°18.21 2°50.786 12.5 317 19 101890 56
2009-08-12 07:17:21 51°18.222 2°50.762 12.5 280 19 101890 56
2009-08-12 07:17:26 51°18.232 2°50.742 12.8 316 19 101880 55
2009-08-12 07:17:31 51°18.243 2°50.722 10.3 300 19 101880 55
2009-08-12 07:17:35 51°18.251 2°50.706 10.4 316 18.9 101890 55
2009-08-12 07:17:41 51°18.263 2°50.682 10.4 300 18.9 101890 55
2009-08-12 07:17:46 51°18.273 2°50.662 10.3 26 18.9 101890 54
2009-08-12 07:17:51 51°18.283 2°50.642 12.6 305 18.9 101890 54
2009-08-12 07:17:55 51°18.291 2°50.626 11.6 317 18.9 101890 55
2009-08-12 07:18:01 51°18.303 2°50.602 11.9 301 18.9 101890 55
2009-08-12 07:18:06 51°18.313 2°50.582 10.1 317 18.9 101890 55
2009-08-12 07:18:11 51°18.324 2°50.562 9.7 303 18.9 101890 55
2009-08-12 07:18:16 51°18.333 2°50.542 10.6 317 18.9 101890 55
2009-08-12 07:18:21 51°18.344 2°50.522 10.4 302 18.9 101890 55
2009-08-12 07:18:26 51°18.354 2°50.502 10.1 315 19 101890 55
2009-08-12 07:18:30 51°18.362 2°50.486 11.8 303 19 101890 55
2009-08-12 07:18:36 51°18.374 2°50.462 12.8 22 18.9 101900 55
2009-08-12 07:18:41 51°18.385 2°50.442 10.3 304 18.9 101900 55
2009-08-12 07:18:46 51°18.395 2°50.423 10.4 315 19 101890 56
2009-08-12 07:18:50 51°18.404 2°50.407 12.6 304 19 101890 56
2009-08-12 07:18:56 51°18.416 2°50.383 10.7 316 19 101890 55
2009-08-12 07:19:01 51°18.426 2°50.364 13 303 19 101890 55
2009-08-12 07:19:06 51°18.437 2°50.344 10.8 316 19 101900 54
2009-08-12 07:19:10 51°18.445 2°50.328 12.5 309 19 101900 54
2009-08-12 07:19:16 51°18.458 2°50.304 12.6 318 18.9 101900 54
2009-08-12 07:19:21 51°18.468 2°50.285 11.9 280 18.9 101900 54
2009-08-12 07:19:26 51°18.478 2°50.265 10.1 316 19 101890 55
2009-08-12 07:19:31 51°18.489 2°50.245 12.1 305 19 101890 55
2009-08-12 07:19:35 51°18.497 2°50.23 12 317 18.9 101900 54
2009-08-12 07:19:41 51°18.509 2°50.206 12.5 309 18.9 101900 54
2009-08-12 07:19:46 51°18.519 2°50.186 12.3 317 18.9 101900 55
2009-08-12 07:19:51 51°18.529 2°50.167 10.7 305 18.9 101900 55
2009-08-12 07:19:55 51°18.537 2°50.151 12.3 317 19 101900 55
2009-08-12 07:20:01 51°18.55 2°50.128 12.3 307 19 101900 55
2009-08-12 07:20:06 51°18.56 2°50.108 12.5 317 19 101900 55
2009-08-12 07:20:11 51°18.57 2°50.088 13.3 308 19 101900 55
2009-08-12 07:20:15 51°18.578 2°50.072 13.5 317 19 101900 54
2009-08-12 07:20:21 51°18.59 2°50.049 13.4 280 19 101900 54
2009-08-12 07:20:26 51°18.6 2°50.029 13.2 317 19 101900 55
2009-08-12 07:20:31 51°18.61 2°50.009 10.7 306 19 101900 55
2009-08-12 07:20:36 51°18.62 2°49.99 13.1 315 19 101900 54
2009-08-12 07:20:41 51°18.63 2°49.97 12.8 302 19 101900 54
2009-08-12 07:20:46 51°18.64 2°49.95 11.3 317 18.9 101900 54
2009-08-12 07:20:51 51°18.65 2°49.93 13.2 308 18.9 101900 54
2009-08-12 07:20:56 51°18.659 2°49.91 13.1 317 18.9 101900 88
2009-08-12 07:21:01 51°18.669 2°49.89 10.6 306 18.9 101900 88
2009-08-12 07:21:06 51°18.679 2°49.87 12.1 317 18.9 101890 88
2009-08-12 07:21:11 51°18.69 2°49.851 10.8 305 18.9 101890 88
2009-08-12 07:21:16 51°18.7 2°49.831 13.3 27 18.9 101890 87
2009-08-12 07:21:21 51°18.71 2°49.812 10.6 308 18.9 101890 87
2009-08-12 07:21:26 51°18.72 2°49.792 12.3 315 18.9 101900 88
2009-08-12 07:21:31 51°18.73 2°49.773 10.7 307 18.9 101900 88
2009-08-12 07:21:36 51°18.741 2°49.753 10.8 315 18.9 101900 82
2009-08-12 07:21:41 51°18.751 2°49.734 12.8 306 18.9 101900 82
2009-08-12 07:21:46 51°18.761 2°49.714 12.8 315 18.9 101900 77
2009-08-12 07:21:51 51°18.771 2°49.694 10.9 305 18.9 101900 77
2009-08-12 07:21:55 51°18.779 2°49.678 13.4 315 18.9 101900 86
2009-08-12 07:22:01 51°18.792 2°49.654 12.4 302 18.9 101900 86
2009-08-12 07:22:06 51°18.802 2°49.634 10.8 316 18.9 101900 88
2009-08-12 07:22:11 51°18.812 2°49.614 10.1 307 18.9 101900 88
2009-08-12 07:22:15 51°18.82 2°49.598 10.4 317 18.9 101900 88
2009-08-12 07:22:21 51°18.832 2°49.574 10 282 18.9 101900 88
2009-08-12 07:22:26 51°18.842 2°49.554 10.6 24 18.9 101900 88
2009-08-12 07:22:31 51°18.852 2°49.533 12.7 305 18.9 101900 88
2009-08-12 07:22:35 51°18.86 2°49.518 11.5 316 18.9 101900 87
2009-08-12 07:22:41 51°18.873 2°49.493 13 305 18.9 101900 87
2009-08-12 07:22:46 51°18.883 2°49.473 12.4 315 18.9 101900 87
2009-08-12 07:22:51 51°18.893 2°49.453 11 304 18.9 101900 87
2009-08-12 07:22:56 51°18.903 2°49.433 10.8 29 18.9 101900 87
2009-08-12 07:23:01 51°18.913 2°49.413 12.6 300 18.9 101900 87
2009-08-12 07:23:06 51°18.924 2°49.393 10.8 23 18.9 101890 87
2009-08-12 07:23:11 51°18.934 2°49.372 12.6 305 18.9 101890 87
2009-08-12 07:23:16 51°18.944 2°49.352 12.4 315 18.9 101900 84
2009-08-12 07:23:21 51°18.954 2°49.331 12.3 304 18.9 101900 84
2009-08-12 07:23:26 51°18.964 2°49.311 10.9 27 18.9 101900 86
2009-08-12 07:23:31 51°18.974 2°49.29 10.4 304 18.9 101900 86
2009-08-12 07:23:36 51°18.984 2°49.27 11.4 26 18.9 101900 83
2009-08-12 07:23:41 51°18.994 2°49.25 12.3 308 18.9 101900 83
2009-08-12 07:23:46 51°19.004 2°49.229 10.1 316 18.9 101890 81
2009-08-12 07:23:50 51°19.012 2°49.213 12.4 307 18.9 101890 81
2009-08-12 07:23:56 51°19.024 2°49.189 12.2 316 18.9 101900 86
2009-08-12 07:24:01 51°19.035 2°49.168 11 308 18.9 101900 86
2009-08-12 07:24:06 51°19.045 2°49.148 12.6 315 18.9 101890 84
2009-08-12 07:24:10 51°19.053 2°49.132 12.5 303 18.9 101890 84
2009-08-12 07:24:16 51°19.065 2°49.108 12.7 27 19 101900 86
2009-08-12 07:24:21 51°19.075 2°49.087 12 33 19 101900 86
2009-08-12 07:24:26 51°19.086 2°49.067 11.9 24 19 101900 86
2009-08-12 07:24:30 51°19.094 2°49.051 12.8 308 19 101900 86
2009-08-12 07:24:36 51°19.106 2°49.026 11.1 23 19 101900 86
2009-08-12 07:24:41 51°19.116 2°49.006 10 302 19 101900 86
2009-08-12 07:24:46 51°19.126 2°48.986 11.7 316 19 101890 86
2009-08-12 07:24:51 51°19.136 2°48.965 11.2 307 19 101890 86
2009-08-12 07:24:56 51°19.147 2°48.945 12.5 316 19 101900 86
2009-08-12 07:25:01 51°19.157 2°48.925 11 304 19 101900 86
2009-08-12 07:25:06 51°19.167 2°48.904 11.1 315 19 101890 86
2009-08-12 07:25:11 51°19.178 2°48.884 11.1 303 19 101890 86
2009-08-12 07:25:15 51°19.186 2°48.868 11 24 19 101900 87
2009-08-12 07:25:21 51°19.198 2°48.844 12.3 305 19 101900 87
2009-08-12 07:25:26 51°19.208 2°48.824 11 29 19 101890 87
2009-08-12 07:25:31 51°19.219 2°48.803 10.9 33 19 101890 87
2009-08-12 07:25:36 51°19.229 2°48.783 11.2 25 19 101900 86
2009-08-12 07:25:41 51°19.239 2°48.762 12.7 310 19 101900 86
2009-08-12 07:25:46 51°19.249 2°48.742 11.7 20 19 101890 85
2009-08-12 07:25:51 51°19.26 2°48.722 12.8 38 19 101890 85
2009-08-12 07:25:56 51°19.27 2°48.701 10.8 27 19 101900 85
2009-08-12 07:26:01 51°19.28 2°48.681 10.7 306 19 101900 85
2009-08-12 07:26:06 51°19.291 2°48.661 12 23 19 101900 85
2009-08-12 07:26:11 51°19.301 2°48.641 12.3 306 19 101900 85
2009-08-12 07:26:16 51°19.311 2°48.62 12.6 23 19 101890 84
2009-08-12 07:26:21 51°19.322 2°48.6 12.3 284 19 101890 84
2009-08-12 07:26:26 51°19.332 2°48.579 12.5 23 19 101900 84
2009-08-12 07:26:31 51°19.343 2°48.559 11.4 306 19 101900 84
2009-08-12 07:26:35 51°19.351 2°48.543 12 25 19 101900 83
2009-08-12 07:26:41 51°19.363 2°48.518 11 304 19 101900 83
2009-08-12 07:26:46 51°19.374 2°48.498 11 25 19 101890 83
2009-08-12 07:26:51 51°19.385 2°48.478 11.1 308 19 101890 83
2009-08-12 07:26:55 51°19.393 2°48.462 12.4 315 19 101890 83
2009-08-12 07:27:01 51°19.405 2°48.438 12.4 302 19 101890 83
2009-08-12 07:27:06 51°19.416 2°48.418 12.3 30 19 101890 84
2009-08-12 07:27:11 51°19.426 2°48.399 11.1 303 19 101890 84
2009-08-12 07:27:16 51°19.436 2°48.379 11.2 26 19 101900 85
2009-08-12 07:27:21 51°19.446 2°48.359 12.4 309 19 101900 85
2009-08-12 07:27:26 51°19.456 2°48.339 12.6 22 19 101890 85
2009-08-12 07:27:31 51°19.467 2°48.32 10.6 303 19 101890 85
2009-08-12 07:27:36 51°19.476 2°48.3 12.4 29 19 101900 85
2009-08-12 07:27:41 51°19.487 2°48.28 11.6 301 19 101900 85
2009-08-12 07:27:46 51°19.497 2°48.261 11.7 27 19 101890 84
2009-08-12 07:27:51 51°19.507 2°48.241 10 303 19 101890 84
2009-08-12 07:27:56 51°19.517 2°48.221 10.3 27 19 101900 83
2009-08-12 07:28:01 51°19.527 2°48.202 10 306 19 101900 83
2009-08-12 07:28:05 51°19.535 2°48.186 12 315 19 101890 85
2009-08-12 07:28:11 51°19.547 2°48.162 11.9 301 19 101890 85
2009-08-12 07:28:16 51°19.557 2°48.143 12.1 26 19 101890 78
2009-08-12 07:28:21 51°19.566 2°48.123 10.6 282 19 101890 78
2009-08-12 07:28:26 51°19.577 2°48.103 11.7 23 19 101900 87
2009-08-12 07:28:31 51°19.587 2°48.083 12.2 307 19 101900 87
2009-08-12 07:28:36 51°19.597 2°48.064 12.2 23 19 101900 87
2009-08-12 07:28:41 51°19.607 2°48.044 10.8 303 19 101900 87
2009-08-12 07:28:46 51°19.617 2°48.024 10.7 28 19 101900 87
2009-08-12 07:28:51 51°19.628 2°48.004 11.4 304 19 101900 87
2009-08-12 07:28:55 51°19.636 2°47.988 12.4 28 19 101900 86
2009-08-12 07:29:01 51°19.648 2°47.965 11.3 303 19 101900 86
2009-08-12 07:29:06 51°19.658 2°47.945 10.4 26 19 101900 87
2009-08-12 07:29:11 51°19.668 2°47.925 11.6 304 19 101900 87
2009-08-12 07:29:15 51°19.677 2°47.909 11.3 26 19 101900 86
2009-08-12 07:29:21 51°19.689 2°47.885 12.3 37 19 101900 86
2009-08-12 07:29:26 51°19.699 2°47.865 12.4 27 19 101900 86
2009-08-12 07:29:31 51°19.71 2°47.846 12.6 305 19 101900 86
2009-08-12 07:29:36 51°19.72 2°47.826 12 24 19 101890 85
2009-08-12 07:29:41 51°19.73 2°47.806 11.8 303 19 101890 85
2009-08-12 07:29:46 51°19.74 2°47.786 11.5 315 19 101890 85
2009-08-12 07:29:51 51°19.751 2°47.766 10.4 36 19 101890 85
2009-08-12 07:29:56 51°19.761 2°47.746 10.7 316 19 101890 85
2009-08-12 07:30:01 51°19.771 2°47.726 11.9 307 19 101890 85
2009-08-12 07:30:06 51°19.781 2°47.706 10.7 25 19 101900 85
2009-08-12 07:30:11 51°19.792 2°47.687 12.8 41 19 101900 85
2009-08-12 07:30:16 51°19.802 2°47.667 11.1 30 19 101900 80
2009-08-12 07:30:21 51°19.812 2°47.646 10.7 305 19 101900 80
2009-08-12 07:30:26 51°19.822 2°47.626 10.3 26 19 101900 83
2009-08-12 07:30:31 51°19.832 2°47.606 11.5 306 19 101900 83
2009-08-12 07:30:36 51°19.842 2°47.586 12.3 24 19 101900 77
2009-08-12 07:30:41 51°19.853 2°47.566 11.8 307 19 101900 77
2009-08-12 07:30:46 51°19.863 2°47.546 12.1 316 19 101900 82
2009-08-12 07:30:51 51°19.873 2°47.526 12.6 305 19 101900 82
2009-08-12 07:30:55 51°19.881 2°47.51 10.3 28 19 101890 77
2009-08-12 07:31:01 51°19.893 2°47.486 12.2 303 19 101890 77
2009-08-12 07:31:06 51°19.904 2°47.466 12.2 27 19 101890 85
2009-08-12 07:31:11 51°19.914 2°47.446 12.4 304 19 101890 85
2009-08-12 07:31:15 51°19.922 2°47.43 12.7 315 19 101900 86
2009-08-12 07:31:21 51°19.935 2°47.406 11 280 19 101900 86
2009-08-12 07:31:26 51°19.946 2°47.386 12.5 23 19 101890 86
2009-08-12 07:31:31 51°19.956 2°47.366 9.9 308 19 101890 86
2009-08-12 07:31:35 51°19.964 2°47.351 12.2 22 19 101890 85
2009-08-12 07:31:41 51°19.977 2°47.326 10.6 304 19 101890 85
2009-08-12 07:31:46 51°19.987 2°47.306 10.4 25 18.9 101890 85
2009-08-12 07:31:51 51°19.997 2°47.285 12.6 307 18.9 101890 85
2009-08-12 07:31:56 51°20.007 2°47.265 12 28 19 101890 86
2009-08-12 07:32:01 51°20.017 2°47.245 10.2 304 19 101890 86
2009-08-12 07:32:06 51°20.028 2°47.225 9.6 26 19 101890 86
2009-08-12 07:32:10 51°20.036 2°47.209 12.4 306 19 101890 86
2009-08-12 07:32:16 51°20.048 2°47.186 9.9 25 19 101890 85
2009-08-12 07:32:21 51°20.059 2°47.165 11.3 303 19 101890 85
2009-08-12 07:32:25 51°20.067 2°47.149 11.8 28 19 101890 85
2009-08-12 07:32:31 51°20.079 2°47.125 10.7 307 19 101890 85
2009-08-12 07:32:36 51°20.09 2°47.105 10.5 27 19 101900 84
2009-08-12 07:32:41 51°20.1 2°47.085 10.3 305 19 101900 84
2009-08-12 07:32:46 51°20.11 2°47.065 11.8 24 19 101900 84
2009-08-12 07:32:51 51°20.121 2°47.045 12.2 301 19 101900 84
2009-08-12 07:32:56 51°20.131 2°47.025 12.5 30 19 101900 86
2009-08-12 07:33:01 51°20.142 2°47.006 12.3 306 19 101900 86
2009-08-12 07:33:06 51°20.152 2°46.985 12.4 25 19 101890 82
2009-08-12 07:33:11 51°20.162 2°46.965 12 305 19 101890 82
2009-08-12 07:33:15 51°20.171 2°46.949 12.1 315 19 101890 84
2009-08-12 07:33:21 51°20.183 2°46.925 12.1 278 19 101890 84
2009-08-12 07:33:26 51°20.193 2°46.905 10.6 25 19 101890 85
2009-08-12 07:33:30 51°20.202 2°46.889 10.6 306 19 101890 85
2009-08-12 07:33:36 51°20.214 2°46.864 12.4 315 19 101890 85
2009-08-12 07:33:41 51°20.223 2°46.844 10.3 301 19 101890 85
2009-08-12 07:33:46 51°20.233 2°46.824 11.2 23 19 101890 84
2009-08-12 07:33:51 51°20.243 2°46.804 10.4 303 19 101890 84
2009-08-12 07:33:56 51°20.253 2°46.783 11.7 24 19 101890 86
2009-08-12 07:34:01 51°20.263 2°46.763 9.7 308 19 101890 86
2009-08-12 07:34:06 51°20.274 2°46.743 12.7 28 18.9 101890 85
2009-08-12 07:34:11 51°20.284 2°46.723 10.3 301 18.9 101890 85
2009-08-12 07:34:16 51°20.293 2°46.703 11.9 29 18.9 101890 84
2009-08-12 07:34:21 51°20.303 2°46.683 11.1 306 18.9 101890 84
2009-08-12 07:34:26 51°20.313 2°46.663 11.5 23 18.9 101890 81
2009-08-12 07:34:31 51°20.324 2°46.643 11.8 39 18.9 101890 81
2009-08-12 07:34:36 51°20.334 2°46.623 10.7 29 18.9 101880 84
2009-08-12 07:34:41 51°20.344 2°46.602 10.1 302 18.9 101880 84
2009-08-12 07:34:46 51°20.354 2°46.582 9.8 23 18.9 101900 78
2009-08-12 07:34:51 51°20.364 2°46.562 9.9 40 18.9 101900 78
2009-08-12 07:34:56 51°20.374 2°46.541 12.4 24 18.9 101890 84
2009-08-12 07:35:01 51°20.384 2°46.521 12.5 300 18.9 101890 84
2009-08-12 07:35:06 51°20.394 2°46.5 12.3 30 18.9 101890 85
2009-08-12 07:35:11 51°20.405 2°46.48 12.5 304 18.9 101890 85
2009-08-12 07:35:16 51°20.415 2°46.46 12.1 29 18.9 101900 85
2009-08-12 07:35:21 51°20.425 2°46.439 12.1 277 18.9 101900 85
2009-08-12 07:35:26 51°20.436 2°46.419 12.1 29 18.9 101890 86
2009-08-12 07:35:31 51°20.446 2°46.398 9.8 301 18.9 101890 86
2009-08-12 07:35:35 51°20.454 2°46.382 9.9 22 18.9 101890 86
2009-08-12 07:35:41 51°20.466 2°46.357 12.2 302 18.9 101890 86
2009-08-12 07:35:46 51°20.477 2°46.337 11.9 24 18.9 101890 86
2009-08-12 07:35:51 51°20.487 2°46.316 12.2 304 18.9 101890 86
2009-08-12 07:35:55 51°20.495 2°46.3 11.9 29 18.9 101890 84
2009-08-12 07:36:01 51°20.508 2°46.275 12 306 18.9 101890 84
2009-08-12 07:36:06 51°20.519 2°46.255 10 27 18.9 101890 86
2009-08-12 07:36:11 51°20.529 2°46.235 11.7 306 18.9 101890 86
2009-08-12 07:36:16 51°20.539 2°46.215 10.2 24 18.9 101890 85
2009-08-12 07:36:21 51°20.55 2°46.194 9.8 302 18.9 101890 85
2009-08-12 07:36:26 51°20.56 2°46.174 11.7 29 18.9 101890 85
2009-08-12 07:36:31 51°20.57 2°46.153 11.9 308 18.9 101890 85
2009-08-12 07:36:36 51°20.58 2°46.133 10.3 28 18.9 101890 85
2009-08-12 07:36:41 51°20.591 2°46.113 9.3 302 18.9 101890 85
2009-08-12 07:36:46 51°20.601 2°46.092 9.5 22 18.9 101890 86
2009-08-12 07:36:51 51°20.611 2°46.072 10 305 18.9 101890 86
2009-08-12 07:36:56 51°20.622 2°46.052 12.1 26 18.9 101890 86
2009-08-12 07:37:01 51°20.632 2°46.032 10.1 307 18.9 101890 86
2009-08-12 07:37:06 51°20.643 2°46.012 11.6 20 18.9 101880 85
2009-08-12 07:37:11 51°20.653 2°45.992 8.8 309 18.9 101880 85
2009-08-12 07:37:16 51°20.665 2°45.975 8.6 20 18.9 101890 86
2009-08-12 07:37:21 51°20.677 2°45.957 9.2 282 18.9 101890 86
2009-08-12 07:37:26 51°20.69 2°45.942 9.1 26 19 101890 86
2009-08-12 07:37:31 51°20.703 2°45.926 8.6 307 19 101890 86
2009-08-12 07:37:36 51°20.715 2°45.911 10.3 24 19 101890 86
2009-08-12 07:37:41 51°20.729 2°45.896 9.2 307 19 101890 86
2009-08-12 07:37:46 51°20.742 2°45.882 11.3 28 19 101890 85
2009-08-12 07:37:50 51°20.753 2°45.87 9.3 303 19 101890 85
2009-08-12 07:37:56 51°20.769 2°45.853 10.6 23 19 101900 86
2009-08-12 07:38:01 51°20.783 2°45.84 10.8 308 19 101900 86
2009-08-12 07:38:06 51°20.797 2°45.826 8.4 28 19 101890 86
2009-08-12 07:38:11 51°20.811 2°45.813 10.7 306 19 101890 86
2009-08-12 07:38:15 51°20.822 2°45.802 8.4 29 19 101890 86
2009-08-12 07:38:21 51°20.839 2°45.787 8.4 235 19 101890 86
2009-08-12 07:38:26 51°20.853 2°45.774 9.5 23 18.9 101900 82
2009-08-12 07:38:31 51°20.867 2°45.761 8.1 306 18.9 101900 82
2009-08-12 07:38:36 51°20.882 2°45.749 8.6 27 18.9 101900 85
2009-08-12 07:38:41 51°20.896 2°45.736 9.3 304 18.9 101900 85
2009-08-12 07:38:46 51°20.91 2°45.725 8.4 22 18.9 101900 84
2009-08-12 07:38:51 51°20.924 2°45.712 8.4 301 18.9 101900 84
2009-08-12 07:38:56 51°20.938 2°45.699 9.8 26 19 101900 87
2009-08-12 07:39:01 51°20.952 2°45.687 7.8 308 19 101900 87
2009-08-12 07:39:06 51°20.965 2°45.674 9.6 24 19 101900 88
2009-08-12 07:39:10 51°20.976 2°45.664 8.9 306 19 101900 88
2009-08-12 07:39:16 51°20.993 2°45.649 9.9 26 19 101900 87
2009-08-12 07:39:21 51°21.007 2°45.636 8.8 279 19 101900 87
2009-08-12 07:39:26 51°21.021 2°45.624 8 26 19 101900 88
2009-08-12 07:39:30 51°21.032 2°45.613 8.8 303 19 101900 88
2009-08-12 07:39:36 51°21.048 2°45.597 10.3 21 19 101900 88
2009-08-12 07:39:41 51°21.062 2°45.585 10.7 303 19 101900 88
2009-08-12 07:39:46 51°21.075 2°45.57 9.1 26 19 101900 87
2009-08-12 07:39:51 51°21.089 2°45.557 9.5 305 19 101900 87
2009-08-12 07:39:56 51°21.102 2°45.542 10.1 24 19 101900 88
2009-08-12 07:40:01 51°21.115 2°45.528 10.9 303 19 101900 88
2009-08-12 07:40:06 51°21.128 2°45.513 9.7 25 19 101900 87
2009-08-12 07:40:10 51°21.138 2°45.501 10.6 304 19 101900 87
2009-08-12 07:40:16 51°21.154 2°45.484 9 27 19 101900 87
2009-08-12 07:40:21 51°21.167 2°45.469 8.9 35 19 101900 87
2009-08-12 07:40:26 51°21.18 2°45.454 9 20 18.9 101900 86
2009-08-12 07:40:31 51°21.192 2°45.438 9.2 307 18.9 101900 86
2009-08-12 07:40:35 51°21.203 2°45.426 8.6 28 18.9 101890 87
2009-08-12 07:40:41 51°21.218 2°45.408 9.3 233 18.9 101890 87
2009-08-12 07:40:46 51°21.231 2°45.392 11.4 25 18.9 101900 88
2009-08-12 07:40:51 51°21.244 2°45.376 11 300 18.9 101900 88
2009-08-12 07:40:55 51°21.254 2°45.364 9.3 29 18.9 101890 87
2009-08-12 07:41:01 51°21.269 2°45.345 9.2 301 18.9 101890 87
2009-08-12 07:41:06 51°21.282 2°45.329 8.8 22 18.9 101900 86
2009-08-12 07:41:11 51°21.294 2°45.313 11.1 34 18.9 101900 86
2009-08-12 07:41:16 51°21.307 2°45.297 11.7 23 18.9 101890 86
2009-08-12 07:41:21 51°21.32 2°45.282 9.5 282 18.9 101890 86
2009-08-12 07:41:26 51°21.333 2°45.265 9 22 18.9 101900 86
2009-08-12 07:41:31 51°21.345 2°45.249 11.3 33 18.9 101900 86
2009-08-12 07:41:36 51°21.358 2°45.234 8.9 24 18.9 101900 87
2009-08-12 07:41:41 51°21.371 2°45.218 8.5 300 18.9 101900 87
2009-08-12 07:41:46 51°21.384 2°45.203 11.2 23 18.9 101900 87
2009-08-12 07:41:51 51°21.397 2°45.186 9.5 304 18.9 101900 87
2009-08-12 07:41:56 51°21.41 2°45.171 9.4 27 18.9 101900 87
2009-08-12 07:42:01 51°21.423 2°45.155 9.3 304 18.9 101900 87
2009-08-12 07:42:06 51°21.436 2°45.14 11.3 28 18.9 101900 88
2009-08-12 07:42:11 51°21.449 2°45.124 8.9 305 18.9 101900 88
2009-08-12 07:42:16 51°21.462 2°45.109 9 25 18.9 101890 88
2009-08-12 07:42:21 51°21.474 2°45.093 11 304 18.9 101890 88
2009-08-12 07:42:26 51°21.488 2°45.077 11.6 24 18.9 101890 88
2009-08-12 07:42:31 51°21.501 2°45.062 11.8 306 18.9 101890 88
2009-08-12 07:42:35 51°21.511 2°45.049 9.3 26 19 101900 85
2009-08-12 07:42:41 51°21.527 2°45.03 11.9 37 19 101900 85
2009-08-12 07:42:46 51°21.54 2°45.015 11.7 28 19 101900 87
2009-08-12 07:42:51 51°21.554 2°45 11.8 308 19 101900 87
2009-08-12 07:42:56 51°21.568 2°44.985 12.1 20 19 101900 87
2009-08-12 07:43:01 51°21.581 2°44.97 9.3 234 19 101900 87
2009-08-12 07:43:06 51°21.595 2°44.956 11.9 22 18.9 101900 87
2009-08-12 07:43:11 51°21.609 2°44.942 9.5 309 18.9 101900 87
2009-08-12 07:43:16 51°21.623 2°44.928 11.2 23 18.9 101900 86
2009-08-12 07:43:21 51°21.637 2°44.914 11.2 285 18.9 101900 86
2009-08-12 07:43:26 51°21.651 2°44.9 9.3 26 18.9 101900 87
2009-08-12 07:43:31 51°21.665 2°44.886 8.5 38 18.9 101900 87
2009-08-12 07:43:36 51°21.679 2°44.872 9.5 21 18.9 101900 85
2009-08-12 07:43:41 51°21.693 2°44.859 12.7 306 18.9 101900 85
2009-08-12 07:43:46 51°21.707 2°44.845 9.4 26 19 101900 84
2009-08-12 07:43:51 51°21.721 2°44.83 12 303 19 101900 84
2009-08-12 07:43:56 51°21.734 2°44.815 9.7 26 19 101900 85
2009-08-12 07:44:01 51°21.748 2°44.799 12.1 302 19 101900 85
2009-08-12 07:44:06 51°21.761 2°44.784 9.9 30 19 101910 81
2009-08-12 07:44:11 51°21.773 2°44.767 10 304 19 101910 81
2009-08-12 07:44:16 51°21.786 2°44.751 10.1 29 18.9 101900 85
2009-08-12 07:44:21 51°21.799 2°44.735 12.5 307 18.9 101900 85
2009-08-12 07:44:26 51°21.812 2°44.718 13.1 26 18.9 101910 85
2009-08-12 07:44:31 51°21.824 2°44.702 10.2 300 18.9 101910 85
2009-08-12 07:44:36 51°21.837 2°44.685 10.2 27 18.9 101900 83
2009-08-12 07:44:41 51°21.849 2°44.668 13 231 18.9 101900 83
2009-08-12 07:44:46 51°21.862 2°44.651 10.5 29 18.9 101900 85
2009-08-12 07:44:51 51°21.875 2°44.634 12.1 306 18.9 101900 85
2009-08-12 07:44:55 51°21.885 2°44.621 11.7 28 18.9 101900 85
2009-08-12 07:45:01 51°21.9 2°44.601 9.9 37 18.9 101900 85
2009-08-12 07:45:06 51°21.912 2°44.584 12.4 23 18.9 101900 86
2009-08-12 07:45:11 51°21.923 2°44.567 12.2 309 18.9 101900 86
2009-08-12 07:45:15 51°21.933 2°44.554 9.4 26 18.9 101900 85
2009-08-12 07:45:21 51°21.947 2°44.534 12.5 276 18.9 101900 85
2009-08-12 07:45:26 51°21.958 2°44.518 12.4 23 18.9 101910 85
2009-08-12 07:45:31 51°21.969 2°44.502 9.3 35 18.9 101910 85
2009-08-12 07:45:36 51°21.981 2°44.487 11.4 21 18.9 101900 86
2009-08-12 07:45:41 51°21.992 2°44.472 11.3 304 18.9 101900 86
2009-08-12 07:45:46 51°22.002 2°44.457 9.8 28 18.9 101900 86
2009-08-12 07:45:51 51°22.013 2°44.443 11.1 36 18.9 101900 86
2009-08-12 07:45:56 51°22.022 2°44.43 8.3 26 18.9 101900 86
2009-08-12 07:46:01 51°22.031 2°44.418 9 308 18.9 101900 86
2009-08-12 07:46:06 51°22.04 2°44.406 8.4 22 18.9 101910 86
2009-08-12 07:46:11 51°22.049 2°44.395 8.2 308 18.9 101910 86
2009-08-12 07:46:16 51°22.057 2°44.384 9.9 20 18.9 101900 86
2009-08-12 07:46:21 51°22.064 2°44.374 10.5 280 18.9 101900 86
2009-08-12 07:46:26 51°22.072 2°44.364 8.6 25 18.9 101910 87
2009-08-12 07:46:31 51°22.079 2°44.355 7.7 303 18.9 101910 87
2009-08-12 07:46:36 51°22.086 2°44.345 10.4 23 18.9 101910 87
2009-08-12 07:46:41 51°22.093 2°44.337 10.2 305 18.9 101910 87
2009-08-12 07:46:46 51°22.099 2°44.328 8.2 26 18.9 101910 87
2009-08-12 07:46:51 51°22.106 2°44.319 9.8 305 18.9 101910 87
2009-08-12 07:46:55 51°22.111 2°44.313 9.3 21 18.9 101910 87
2009-08-12 07:47:01 51°22.118 2°44.304 7.9 303 18.9 101910 87
2009-08-12 07:47:06 51°22.123 2°44.296 7.5 21 18.9 101910 87
2009-08-12 07:47:11 51°22.129 2°44.288 7.9 310 18.9 101910 87
2009-08-12 07:47:16 51°22.134 2°44.28 9.2 19 18.9 101910 86
2009-08-12 07:47:21 51°22.14 2°44.273 8.6 301 18.9 101910 86
2009-08-12 07:47:26 51°22.145 2°44.265 10 28 18.9 101910 86
2009-08-12 07:47:30 51°22.149 2°44.26 9.6 306 18.9 101910 86
2009-08-12 07:47:36 51°22.156 2°44.25 9.7 24 18.9 101920 86
2009-08-12 07:47:41 51°22.162 2°44.242 9.4 301 18.9 101920 86
2009-08-12 07:47:46 51°22.169 2°44.234 8.2 24 19 101910 87
2009-08-12 07:47:51 51°22.175 2°44.225 8.4 307 19 101910 87
2009-08-12 07:47:56 51°22.182 2°44.216 9.6 21 19 101910 86
2009-08-12 07:48:01 51°22.19 2°44.206 8.2 307 19 101910 86
2009-08-12 07:48:06 51°22.197 2°44.196 8 25 19 101910 86
2009-08-12 07:48:11 51°22.205 2°44.185 8.8 236 19 101910 86
2009-08-12 07:48:16 51°22.213 2°44.175 8.5 26 19 101900 84
2009-08-12 07:48:21 51°22.221 2°44.164 8.1 278 19 101900 84
2009-08-12 07:48:26 51°22.229 2°44.154 8.8 25 19 101910 85
2009-08-12 07:48:31 51°22.237 2°44.143 8.8 301 19 101910 85
2009-08-12 07:48:36 51°22.245 2°44.133 10.6 25 19 101900 85
2009-08-12 07:48:41 51°22.252 2°44.123 8.5 303 19 101900 85
2009-08-12 07:48:46 51°22.26 2°44.114 9.9 28 19 101900 86
2009-08-12 07:48:50 51°22.265 2°44.106 10 308 19 101900 86
2009-08-12 07:48:56 51°22.274 2°44.095 7.8 28 18.9 101910 86
2009-08-12 07:49:01 51°22.281 2°44.086 8.1 300 18.9 101910 86
2009-08-12 07:49:06 51°22.287 2°44.077 8.2 25 19 101900 86
2009-08-12 07:49:11 51°22.294 2°44.069 8 307 19 101900 86
2009-08-12 07:49:15 51°22.299 2°44.062 7.2 22 19 101910 86
2009-08-12 07:49:21 51°22.307 2°44.052 8.9 305 19 101910 86
2009-08-12 07:49:26 51°22.313 2°44.044 7.7 27 19 101910 86
2009-08-12 07:49:31 51°22.319 2°44.036 9.3 307 19 101910 86
2009-08-12 07:49:36 51°22.325 2°44.027 8 25 19 101910 85
2009-08-12 07:49:41 51°22.331 2°44.019 9.3 303 19 101910 85
2009-08-12 07:49:46 51°22.337 2°44.012 10.1 25 19 101910 85
2009-08-12 07:49:51 51°22.343 2°44.004 10.2 300 19 101910 85
2009-08-12 07:49:56 51°22.349 2°43.996 10.4 28 19 101910 85
2009-08-12 07:50:01 51°22.355 2°43.988 9.8 304 19 101910 85
2009-08-12 07:50:06 51°22.361 2°43.981 7.7 25 19 101900 86
2009-08-12 07:50:11 51°22.367 2°43.973 7.6 301 19 101900 86
2009-08-12 07:50:16 51°22.373 2°43.965 9.3 24 19 101910 83
2009-08-12 07:50:21 51°22.378 2°43.958 9.2 283 19 101910 83
2009-08-12 07:50:25 51°22.383 2°43.951 7.6 23 18.9 101910 83
2009-08-12 07:50:31 51°22.39 2°43.942 7.2 240 18.9 101910 83
2009-08-12 07:50:36 51°22.395 2°43.935 8.1 26 19 101900 85
2009-08-12 07:50:41 51°22.401 2°43.927 9.6 305 19 101900 85
2009-08-12 07:50:46 51°22.406 2°43.919 9.3 30 19 101910 84
2009-08-12 07:50:51 51°22.412 2°43.912 7.8 302 19 101910 84
2009-08-12 07:50:56 51°22.417 2°43.905 9.2 26 19 101910 86
2009-08-12 07:51:01 51°22.423 2°43.897 9.2 306 19 101910 86
2009-08-12 07:51:06 51°22.428 2°43.89 7.3 22 19 101910 83
2009-08-12 07:51:11 51°22.434 2°43.882 9.6 305 19 101910 83
2009-08-12 07:51:16 51°22.44 2°43.875 8.6 22 19 101910 84
2009-08-12 07:51:21 51°22.445 2°43.867 5.9 308 19 101910 84
2009-08-12 07:51:26 51°22.451 2°43.86 8.4 27 19 101910 85
2009-08-12 07:51:31 51°22.456 2°43.852 9.6 304 19 101910 85
2009-08-12 07:51:35 51°22.46 2°43.846 8.3 24 19 101910 85
2009-08-12 07:51:41 51°22.467 2°43.837 8.1 304 19 101910 85
2009-08-12 07:51:46 51°22.473 2°43.83 9.3 27 19 101910 85
2009-08-12 07:51:51 51°22.478 2°43.822 8 303 19 101910 85
2009-08-12 07:51:55 51°22.482 2°43.816 8.4 21 19 101910 85
2009-08-12 07:52:01 51°22.489 2°43.807 9.6 301 19 101910 85
2009-08-12 07:52:06 51°22.496 2°43.799 8.1 29 19 101910 85
2009-08-12 07:52:11 51°22.503 2°43.79 8.6 305 19 101910 85